Weather History for KHCD - October, 2014

Change the Weather History Date:

Saturday, October 18, 2014

  Actual Average Record
Temperature  
Mean Temperature 42 °F -  
Max Temperature 50 °F 56 °F 79 °F (1965)
Min Temperature 34 °F 34 °F 17 °F (1972)
Degree Days  
Heating Degree Days 23    
Moisture  
Dew Point 39 °F    
Average Humidity 86    
Maximum Humidity 99    
Minimum Humidity 67    
Precipitation  
Precipitation 0.00 in - - ()
Sea Level Pressure  
Sea Level Pressure 30.18 in    
Wind  
Wind Speed 6 mph (NW)    
Max Wind Speed 12 mph    
Max Gust Speed -    
Visibility 10 miles    
Events      
Averages and records for this station are not official NWS values.
T = Trace of Precipitation, MM = Missing Value Source: NWS Daily Summary

Daily Weather History Graph

Daily Weather History Graph

Search for Another Location

Airport or City:

Trip Planner

Search our weather history database for the weather conditions in past years. The results will help you decide how hot, cold, wet, or windy it might be!

Date:

Astronomy

Oct. 18, 2014 Rise Set
Actual Time 7:37 AM CDT 6:27 PM CDT
Civil Twilight 7:07 AM CDT 6:57 PM CDT
Nautical Twilight 6:33 AM CDT 7:31 PM CDT
Astronomical Twilight 5:59 AM CDT 8:05 PM CDT
Moon 2:24 AM CDT (10/18) 3:59 PM CDT (10/18)
Length of Visible Light 11h 49m
Length of Day
10h 50m
Waning Crescent, 24% of the Moon is Illuminated
Oct 18
Waning Crescent
Oct 23
New
Oct 30
First Quarter
Nov 6
Full
Nov 14
Last Quarter

Hourly Weather History & Observations

Time (CDT) Temp. Windchill Dew Point Humidity Pressure Visibility Wind Dir Wind Speed Gust Speed Precip Events Conditions
12:13 AM 46.8 °F - 42.8 °F 86% 30.11 in 10.0 mi NW 10.4 mph - N/A   Overcast
12:33 AM 46.6 °F - 42.8 °F 87% 30.12 in 10.0 mi NW 9.2 mph - N/A   Overcast
12:52 AM 45.9 °F 41.7 °F 42.1 °F 87% 30.12 in 10.0 mi WNW 8.1 mph - N/A   Scattered Clouds
1:12 AM 45.5 °F 41.3 °F 41.9 °F 87% 30.13 in 10.0 mi WNW 8.1 mph - N/A   Clear
1:32 AM 44.4 °F 40.0 °F 41.2 °F 88% 30.13 in 10.0 mi WNW 8.1 mph - N/A   Clear
1:52 AM 43.5 °F 39.4 °F 41.0 °F 91% 30.14 in 10.0 mi WNW 6.9 mph - N/A   Clear
2:13 AM 42.6 °F 38.4 °F 40.5 °F 92% 30.14 in 10.0 mi WNW 6.9 mph - N/A   Clear
2:32 AM 41.2 °F 37.3 °F 39.9 °F 95% 30.14 in 10.0 mi WNW 5.8 mph - N/A   Clear
2:51 AM 40.3 °F 37.1 °F 39.4 °F 97% 30.15 in 10.0 mi West 4.6 mph - N/A   Clear
3:12 AM 39.4 °F 36.1 °F 38.8 °F 98% 30.15 in 10.0 mi West 4.6 mph - N/A   Clear
3:33 AM 39.9 °F 35.8 °F 39.6 °F 99% 30.15 in 10.0 mi WNW 5.8 mph - N/A   Mostly Cloudy
3:52 AM 39.7 °F 37.6 °F 39.0 °F 97% 30.16 in 10.0 mi WNW 3.5 mph - N/A   Mostly Cloudy
4:13 AM 39.0 °F 35.7 °F 38.7 °F 99% 30.16 in 10.0 mi WNW 4.6 mph - N/A   Mostly Cloudy
4:33 AM 40.3 °F 37.1 °F 39.6 °F 97% 30.16 in 10.0 mi WNW 4.6 mph - N/A   Overcast
4:52 AM 41.9 °F 40.0 °F 40.8 °F 96% 30.17 in 10.0 mi WNW 3.5 mph - N/A   Overcast
5:13 AM 41.9 °F 39.0 °F 41.0 °F 97% 30.18 in 10.0 mi WNW 4.6 mph - N/A   Overcast
5:32 AM 42.3 °F 38.6 °F 41.0 °F 95% 30.18 in 10.0 mi WNW 5.8 mph - N/A   Overcast
5:53 AM 42.1 °F 38.4 °F 40.6 °F 95% 30.19 in 10.0 mi WNW 5.8 mph - N/A   Overcast
6:13 AM 42.1 °F 38.4 °F 40.6 °F 95% 30.19 in 10.0 mi WNW 5.8 mph - N/A   Overcast
6:32 AM 42.1 °F 39.2 °F 40.6 °F 95% 30.20 in 10.0 mi WNW 4.6 mph - N/A   Overcast
6:53 AM 41.9 °F 38.2 °F 40.6 °F 95% 30.21 in 10.0 mi WNW 5.8 mph - N/A   Overcast
7:13 AM 42.1 °F 39.2 °F 40.6 °F 95% 30.21 in 10.0 mi NW 4.6 mph - N/A   Overcast
7:32 AM 42.6 °F 39.0 °F 40.6 °F 93% 30.22 in 10.0 mi NW 5.8 mph - N/A   Overcast
7:53 AM 43.7 °F 39.7 °F 40.3 °F 88% 30.22 in 10.0 mi NNW 6.9 mph - N/A   Overcast
8:13 AM 43.7 °F 40.3 °F 40.5 °F 88% 30.23 in 10.0 mi NNW 5.8 mph - N/A   Overcast
8:32 AM 43.5 °F 41.9 °F 40.8 °F 90% 30.24 in 10.0 mi North 3.5 mph - N/A   Overcast
8:53 AM 44.4 °F 38.6 °F 39.4 °F 82% 30.23 in 10.0 mi NNW 11.5 mph - N/A   Overcast
9:13 AM 44.6 °F 40.7 °F 39.4 °F 82% 30.24 in 10.0 mi NW 6.9 mph - N/A   Overcast
9:33 AM 44.8 °F 40.4 °F 39.4 °F 81% 30.24 in 10.0 mi NNW 8.1 mph - N/A   Overcast
9:53 AM 44.8 °F 41.0 °F 39.4 °F 81% 30.24 in 10.0 mi NNW 6.9 mph - N/A   Overcast
10:13 AM 45.5 °F 43.2 °F 39.2 °F 79% 30.24 in 10.0 mi North 4.6 mph - N/A   Overcast
10:33 AM 45.5 °F 44.2 °F 39.4 °F 79% 30.25 in 10.0 mi North 3.5 mph - N/A   Overcast
10:53 AM 45.5 °F 42.5 °F 39.4 °F 79% 30.24 in 10.0 mi NNE 5.8 mph - N/A   Overcast
11:13 AM 45.7 °F - 39.0 °F 78% 30.25 in 10.0 mi Calm Calm - N/A   Overcast
11:32 AM 46.0 °F - 39.2 °F 77% 30.24 in 10.0 mi Calm Calm - N/A   Overcast
11:53 AM 46.0 °F - 38.8 °F 76% 30.24 in 10.0 mi Calm Calm - N/A   Overcast
12:13 PM 46.6 °F - 39.6 °F 77% 30.24 in 10.0 mi North 3.5 mph - N/A   Overcast
12:32 PM 46.6 °F - 38.7 °F 74% 30.24 in 10.0 mi NW 4.6 mph - N/A   Overcast
12:52 PM 47.1 °F - 39.4 °F 74% 30.24 in 10.0 mi Calm Calm - N/A   Overcast
1:13 PM 47.5 °F - 39.0 °F 72% 30.24 in 10.0 mi Calm Calm - N/A   Overcast
1:32 PM 48.0 °F - 39.0 °F 71% 30.23 in 10.0 mi ENE 4.6 mph - N/A   Overcast
1:53 PM 48.7 °F - 39.4 °F 70% 30.23 in 10.0 mi NW 3.5 mph - N/A   Overcast
2:13 PM 48.9 °F - 39.7 °F 71% 30.22 in 10.0 mi Calm Calm - N/A   Overcast
2:33 PM 49.8 °F - 39.6 °F 68% 30.21 in 10.0 mi North 4.6 mph - N/A   Overcast
2:53 PM 49.8 °F - 39.9 °F 69% 30.21 in 10.0 mi East 3.5 mph - N/A   Overcast
3:12 PM 50.7 °F - 40.1 °F 67% 30.21 in 10.0 mi West 3.5 mph - N/A   Mostly Cloudy
3:33 PM 50.4 °F - 40.3 °F 68% 30.20 in 10.0 mi West 5.8 mph - N/A   Mostly Cloudy
3:53 PM 50.4 °F - 40.1 °F 68% 30.20 in 10.0 mi WSW 8.1 mph - N/A   Scattered Clouds
4:13 PM 50.2 °F - 40.5 °F 69% 30.20 in 10.0 mi West 6.9 mph - N/A   Clear
4:32 PM 50.9 °F - 41.2 °F 69% 30.19 in 10.0 mi West 8.1 mph - N/A   Clear
4:53 PM 50.5 °F - 40.8 °F 69% 30.20 in 10.0 mi West 9.2 mph - N/A   Clear
5:12 PM 49.1 °F - 40.5 °F 72% 30.19 in 10.0 mi WNW 3.5 mph - N/A   Clear
5:32 PM 48.6 °F - 40.5 °F 74% 30.19 in 10.0 mi West 4.6 mph - N/A   Scattered Clouds
5:50 PM 48.7 °F - 40.8 °F 74% 30.19 in 10.0 mi West 8.1 mph - N/A   Scattered Clouds
6:12 PM 47.3 °F - 40.5 °F 77% 30.18 in 10.0 mi West 4.6 mph - N/A   Scattered Clouds
6:33 PM 45.5 °F - 39.9 °F 81% 30.18 in 10.0 mi Calm Calm - N/A   Clear
6:53 PM 43.2 °F - 39.4 °F 86% 30.17 in 10.0 mi Calm Calm - N/A   Clear
7:13 PM 43.7 °F - 39.0 °F 84% 30.16 in 10.0 mi Calm Calm - N/A   Clear
7:33 PM 40.8 °F 37.8 °F 37.8 °F 89% 30.15 in 10.0 mi ESE 4.6 mph - N/A   Clear
7:53 PM 39.2 °F 37.0 °F 36.9 °F 91% 30.15 in 10.0 mi ESE 3.5 mph - N/A   Clear
8:13 PM 39.6 °F 37.4 °F 37.4 °F 92% 30.14 in 10.0 mi ESE 3.5 mph - N/A   Clear
8:33 PM 39.4 °F - 37.4 °F 93% 30.14 in 10.0 mi Calm Calm - N/A   Clear
8:53 PM 38.7 °F 35.2 °F 37.4 °F 95% 30.13 in 10.0 mi SE 4.6 mph - N/A   Clear
9:13 PM 37.9 °F - 36.1 °F 93% 30.13 in 10.0 mi Calm Calm - N/A   Clear
9:32 PM 34.5 °F - 33.8 °F 97% 30.13 in 10.0 mi Calm Calm - N/A   Clear
9:52 PM 35.8 °F - 35.6 °F 99% 30.12 in 10.0 mi Calm Calm - N/A   Clear
10:13 PM 34.3 °F - 33.8 °F 98% 30.12 in 10.0 mi Calm Calm - N/A   Clear
10:33 PM 34.3 °F - 34.2 °F 99% 30.12 in 10.0 mi Calm Calm - N/A   Clear
10:53 PM 34.9 °F - 34.5 °F 99% 30.11 in 10.0 mi Calm Calm - N/A   Clear
11:12 PM 35.8 °F 33.0 °F 35.6 °F 99% 30.11 in 10.0 mi ESE 3.5 mph - N/A   Clear
11:32 PM 35.4 °F 32.6 °F 34.9 °F 98% 30.10 in 10.0 mi SE 3.5 mph - N/A   Clear
11:53 PM 35.6 °F 31.7 °F 35.1 °F 98% 30.08 in 10.0 mi SE 4.6 mph - N/A   Clear